Tracking 18823 objects as of 21-October-2017
HD Live streaming from Space Station
objects crossing your sky now

UNISAT 3

Track UNISAT 3 now!
10-day predictions
UNISAT 3 is classified as:


NORAD ID: 28373
Int'l Code: 2004-025H
Perigee: 698.8 km
Apogee: 796.7 km
Inclination: 98.3 °
Period: 99.6 minutes
Semi major axis: 7118 km
RCS: 0.116 m2 (medium)
Launch date: June 29, 2004
Source: Italy (IT)
Launch site: TYURATAM MISSILE AND SPACE COMPLEX (TTMTR)

Unisat 3 is an Italian, scientific microsatellite (12 kg) designed to test solar cells in the space environment.
aabbcc
Your satellite tracking list
Your tracking list is empty





NASA's NSSDC Master Catalog

Two Line Element Set (TLE):
1 28373U 04025H   17294.06085387  .00000085  00000-0  36182-4 0  9991
2 28373  98.3468 233.8909 0068710 186.9597 173.0648 14.45431341702080
Source of the keplerian elements: AFSPC